This is the latest recevied weather packets stored in our database for station/object N7NIP. If no packets are shown the sender has not sent any weather packets the latest 10 day(s).
| Time | Temp. | Humidity | Pressure | Rain* | Wind** | Luminosity | Snow |
|---|---|---|---|---|---|---|---|
| 1778110132 | 13.89° C | 79% | 1034.4 hPa | 0 mm | - | 108 W/m² | - |
| 1778109828 | 13.89° C | 78% | 1034.6 hPa | 0 mm | - | 129 W/m² | - |
| 1778109524 | 13.89° C | 77% | 1034.4 hPa | 0 mm | - | 113 W/m² | - |
| 1778109222 | 13.89° C | 78% | 1034.6 hPa | 0 mm | - | 210 W/m² | - |
| 1778108919 | 14.44° C | 76% | 1034.5 hPa | 0 mm | - | 252 W/m² | - |
| 1778108616 | 14.44° C | 76% | 1034.7 hPa | 0 mm | - | 250 W/m² | - |
| 1778108312 | 14.44° C | 74% | 1034.7 hPa | 0 mm | - | 329 W/m² | - |
| 1778108010 | 14.44° C | 76% | 1034.6 hPa | 0 mm | - | 411 W/m² | - |
| 1778107707 | 14.44° C | 80% | 1034.4 hPa | 0 mm | - | 440 W/m² | - |
| 1778107404 | 14.44° C | 76% | 1034.6 hPa | 0 mm | - | 321 W/m² | - |
| 1778107100 | 14.44° C | 77% | 1034.6 hPa | 0 mm | - | 325 W/m² | - |
| 1778106795 | 13.89° C | 77% | 1034.4 hPa | 0 mm | - | 310 W/m² | - |
| 1778106493 | 14.44° C | 76% | 1034.6 hPa | 0 mm | - | 329 W/m² | - |
| 1778106188 | 14.44° C | 78% | 1034.7 hPa | 0 mm | - | 422 W/m² | - |
| 1778105887 | 14.44° C | 78% | 1034.7 hPa | 0 mm | - | 328 W/m² | - |
| 1778105584 | 14.44° C | 76% | 1034.8 hPa | 0 mm | - | 326 W/m² | - |
| 1778105282 | 14.44° C | 76% | 1034.8 hPa | 0 mm | - | 421 W/m² | - |
| 1778104982 | 14.44° C | 78% | 1034.8 hPa | 0 mm | - | 529 W/m² | - |
| 1778104679 | 14.44° C | 76% | 1034.6 hPa | 0 mm | - | 445 W/m² | - |
| 1778104374 | 15° C | 78% | 1034.6 hPa | 0 mm | - | 439 W/m² | - |
| 1778104071 | 15° C | 77% | 1034.7 hPa | 0 mm | - | 436 W/m² | - |
| 1778103768 | 15° C | 77% | 1034.7 hPa | 0 mm | - | 594 W/m² | - |
| 1778103466 | 15° C | 77% | 1034.7 hPa | 0 mm | - | 498 W/m² | - |
| 1778103163 | 15° C | 75% | 1034.6 hPa | 0 mm | - | 593 W/m² | - |
| 1778102860 | 15° C | 78% | 1034.7 hPa | 0 mm | - | 642 W/m² | - |
* Rain latest hour (hover to see other rain measurements)
** Current wind speed in m/s (hover to see current wind gust speed)